{"data":{"norad_id":49410,"intl_designator":"2021-104C","name":"STARLINK-3147","alt_names":[],"object_type":"PAYLOAD","status":"ACTIVE","operator":null,"country":"US","launch_date":"2021-11-13","launch_site_code":"AFETR","launch_vehicle":null,"mission":null,"orbit_class":"UNKNOWN","rcs_meters":null,"size_class":null,"mass_kg":null,"dimensions":null,"purposes":["comms"],"wikipedia_slug":null,"has_3d_model":false,"image_url":null,"decayed_at":null,"tle_current":{"epoch":"2026-09-20T03:48:56.115648Z","epoch_age_seconds":70868,"freshness":"FRESH","line1":"1 49410U 21104C   26263.15898282  .00000420  00000+0  25304-4 0  9991","line2":"2 49410  53.1600  62.4040 0001231  92.5676 267.5466 15.31698513268175","mean_motion":15.31698513,"eccentricity":0.0001231,"inclination_deg":53.16,"raan_deg":62.404,"arg_perigee_deg":92.5676,"mean_anomaly_deg":267.5466,"bstar":2.5304e-5,"rev_number":26817,"period_min":94.013279230754,"perigee_km":469.90133059508,"apogee_km":471.58752520263,"semimajor_km":6848.8814278989,"source":"CELESTRAK","updated_at":"2026-09-20T09:00:39.255459Z"}}}